Theta_e
314 313 314 314 314 315 314 312 314 316 316 317 317 319 320 322 322 320 319 322 326 329 329 327 325 325 327 329 331 331 327 321 320 322 323 323 322 323 320 318 324 324 321 323 324 324 323 324 325 325 326 327 329 329 325 323 325 326 328 330 329 331 332 332 334 332 327 323 324 323 324 325 326 326 324 324 326 327 327 328 330 330 331 336 338 337 337 336
314 314 314 315 314 314 316 314 313 315 316 316 317 319 321 322 322 320 318 318 323 328 329 327 327 326 328 330 330 329 324 321 321 322 322 322 321 323 323 321 324 324 321 323 324 324 324 324 324 325 326 327 330 330 327 324 323 325 329 330 330 332 332 331 332 328 323 323 323 324 325 325 325 325 324 325 326 326 327 328 330 331 331 335 338 337 336 335
314 314 314 315 314 314 316 315 313 314 315 315 316 318 320 322 322 320 319 319 322 327 329 328 327 327 329 330 329 327 324 322 322 322 321 322 321 322 323 323 324 323 322 323 324 323 324 325 325 326 325 327 330 330 329 327 323 324 328 330 331 331 330 326 325 322 320 322 322 323 325 325 325 324 324 325 326 326 327 328 330 331 330 335 337 336 335 335
314 314 314 314 314 314 315 315 313 314 315 315 316 318 320 322 322 320 320 321 323 326 328 328 327 328 329 329 328 326 323 324 324 322 322 321 321 321 322 324 323 322 322 323 324 324 324 326 326 326 327 328 329 330 331 329 326 326 327 328 330 329 328 324 322 320 318 320 320 322 324 325 325 323 324 324 326 326 326 327 328 330 329 334 337 335 335 334
314 314 314 314 314 314 315 315 313 313 315 316 316 317 319 321 321 320 319 321 324 326 328 329 328 327 328 327 327 325 323 327 327 322 323 322 321 321 322 323 323 322 322 322 324 323 323 325 326 326 328 328 329 331 332 329 327 329 328 328 328 327 327 322 319 318 317 318 319 320 321 324 325 323 324 324 326 326 324 325 326 328 329 333 338 335 334 334
313 314 315 315 314 314 315 315 313 312 315 316 317 317 319 320 320 319 318 320 322 324 327 329 328 327 328 327 326 324 324 330 327 322 324 323 322 322 322 323 322 322 322 322 323 324 325 324 326 327 328 329 330 331 332 330 328 330 331 329 327 327 327 320 316 316 317 318 318 318 319 323 325 323 324 324 325 324 322 324 324 328 329 333 337 335 334 333
313 313 314 314 315 315 314 314 312 311 314 316 316 317 318 318 318 317 317 318 319 321 325 328 328 328 327 326 325 324 324 327 324 323 324 323 323 322 323 323 321 322 322 322 323 326 327 325 326 327 328 330 331 331 332 331 329 329 332 331 327 328 327 319 315 316 315 317 317 317 318 320 322 321 323 324 324 324 323 322 323 330 331 333 337 335 334 334
313 313 313 313 314 315 313 314 312 311 314 316 316 317 317 318 318 316 316 317 317 319 324 327 328 327 326 324 323 325 325 324 323 324 324 324 323 322 323 322 320 322 322 322 323 324 326 326 326 327 329 331 331 332 333 333 332 331 332 331 327 325 324 318 314 315 315 316 316 316 317 318 319 319 321 323 323 324 323 322 323 331 333 335 337 335 335 334
313 313 313 313 313 314 313 314 313 312 314 315 316 317 317 318 317 316 315 316 316 318 322 325 326 325 325 323 322 325 326 323 323 324 324 324 323 322 323 321 319 320 322 322 321 323 326 327 327 328 330 332 333 334 333 335 335 333 331 330 327 324 321 317 315 315 315 316 315 316 317 318 318 317 319 321 321 322 323 322 322 330 334 335 336 335 335 335
313 313 312 313 313 313 313 314 313 313 315 315 316 317 317 317 317 315 314 314 315 317 321 324 325 324 324 323 323 325 324 322 322 323 323 323 322 322 323 322 319 320 321 321 321 322 324 326 327 328 330 331 333 334 334 335 333 330 328 328 329 326 320 318 317 316 315 315 315 315 317 318 317 316 318 319 318 320 323 323 321 326 333 334 335 335 334 335
313 312 312 312 312 311 312 314 314 314 315 315 316 317 317 318 317 315 313 313 315 316 319 323 324 324 323 322 324 324 322 321 323 322 323 323 323 322 323 323 321 321 322 320 321 321 323 324 323 328 334 331 331 333 334 334 330 328 327 328 331 328 322 318 317 318 315 315 315 314 316 318 317 317 318 319 318 320 322 323 322 323 330 333 333 335 334 334
313 312 311 311 311 311 312 313 314 315 315 314 315 317 317 318 318 317 314 313 314 315 317 321 323 323 322 323 323 323 321 322 323 322 323 323 323 323 324 324 322 322 321 321 322 321 321 320 320 329 332 331 333 333 332 330 328 329 327 330 332 327 324 320 317 319 315 315 316 315 317 317 317 317 317 319 320 320 322 322 323 323 326 330 331 334 335 333
313 312 311 311 311 311 312 313 314 314 315 315 315 316 317 318 318 318 316 314 314 315 315 319 322 321 322 323 323 321 321 322 323 322 322 323 323 323 324 324 322 322 320 321 321 319 320 319 320 326 324 328 334 329 327 327 327 329 326 328 331 328 327 323 319 319 316 316 317 316 320 320 318 318 316 320 321 320 322 322 324 325 324 327 329 332 335 333
313 313 311 311 312 312 312 313 314 314 315 315 315 316 317 317 318 318 316 315 315 315 314 317 321 321 322 323 322 321 321 322 323 322 322 323 323 323 324 323 322 321 320 321 320 319 322 319 320 323 320 325 328 322 323 328 328 327 326 328 331 331 330 327 323 321 318 318 317 318 321 323 323 321 317 318 320 320 321 322 325 326 323 325 328 332 335 334
312 313 312 311 312 313 313 314 314 314 314 314 314 316 317 317 318 318 316 315 315 315 314 317 322 321 322 324 322 320 321 321 322 323 322 322 323 323 324 323 322 321 320 320 320 320 322 321 324 328 324 320 320 321 324 326 326 326 329 331 331 331 331 329 327 323 321 318 317 319 321 323 326 327 321 318 319 319 319 321 324 325 323 323 327 331 334 334
312 313 312 312 313 313 313 314 314 313 313 313 313 315 316 317 318 317 315 315 315 315 315 319 322 322 323 325 322 321 321 321 321 322 323 322 322 323 323 322 321 321 320 320 321 322 321 323 326 326 324 322 320 322 324 324 325 326 329 331 330 330 328 328 328 325 322 318 317 320 323 327 329 326 323 319 319 320 319 320 322 324 324 323 327 331 333 334
311 312 312 313 314 313 313 314 314 313 312 313 314 315 316 317 316 315 314 314 315 315 316 317 317 319 323 323 322 322 321 322 321 321 324 323 322 324 323 322 321 320 320 320 321 323 323 324 326 325 325 326 323 322 326 327 327 326 328 329 328 329 326 326 329 327 323 318 317 319 323 328 326 320 319 320 320 320 320 320 320 323 324 325 329 332 333 334
311 312 312 313 313 313 313 314 313 312 312 314 316 317 317 315 314 314 313 313 314 315 315 315 313 317 323 322 321 323 322 322 322 321 323 324 323 324 322 322 321 320 321 321 322 324 325 326 327 328 330 328 326 324 327 330 328 327 328 326 325 327 326 325 328 327 323 320 320 319 320 323 324 319 318 318 319 320 319 319 320 320 323 326 329 331 332 332
312 312 312 312 313 313 314 313 312 312 313 315 316 316 315 314 313 313 313 313 314 315 315 316 315 316 321 320 318 321 322 322 323 323 324 324 323 323 322 322 321 320 323 325 325 325 326 326 327 329 330 330 328 324 325 328 327 326 327 324 324 325 325 325 324 323 322 323 321 318 318 318 320 321 319 317 317 319 319 319 320 320 321 326 330 331 331 331
312 312 312 312 312 313 314 313 313 313 314 315 315 314 314 313 313 313 313 313 313 315 316 316 316 315 316 316 317 321 323 322 324 324 324 323 323 323 322 322 321 322 324 326 326 325 326 328 329 330 331 329 326 323 323 326 326 326 326 323 323 324 325 324 320 320 320 321 320 319 319 319 319 320 320 320 317 318 319 319 320 320 321 325 329 331 331 331
311 311 311 311 312 313 314 313 313 314 314 315 313 312 314 314 314 314 313 312 312 314 316 315 314 314 314 314 316 319 322 323 324 324 323 322 323 324 323 322 323 324 324 325 326 324 326 330 331 330 330 328 325 324 323 324 325 326 324 323 323 323 325 322 318 319 320 320 320 320 321 321 321 321 321 322 320 317 317 318 319 318 320 322 324 327 329 328
310 310 311 311 312 313 314 314 314 314 314 314 313 312 313 313 313 313 312 312 311 311 313 314 312 313 312 312 313 314 319 325 326 323 322 321 323 324 323 323 324 325 324 325 327 326 328 331 330 329 329 328 326 325 324 325 326 326 326 324 323 324 325 323 318 318 318 319 322 323 323 322 322 322 322 323 321 319 318 318 319 318 319 320 320 322 325 325
309 309 310 311 312 312 313 314 314 314 314 314 314 313 313 313 312 310 310 311 311 310 310 312 313 313 312 312 313 312 316 324 327 323 321 321 323 324 323 324 325 324 325 326 327 328 329 329 328 328 327 328 328 326 326 326 326 328 328 326 323 324 327 324 321 320 319 321 325 325 324 324 324 324 324 324 323 321 321 320 319 321 320 319 319 319 321 322
309 310 311 311 311 311 313 314 314 314 314 313 314 313 314 313 310 309 310 311 311 310 309 310 311 312 312 312 313 313 315 322 325 322 320 322 324 324 324 325 325 324 325 326 326 328 329 327 326 326 326 328 329 329 329 329 329 331 333 331 327 325 327 325 323 321 318 320 322 323 327 328 326 327 326 325 325 323 324 323 322 323 322 321 321 321 321 321
310 310 311 311 311 312 313 313 313 313 312 312 313 313 313 312 309 310 311 312 311 310 309 309 310 311 312 312 312 313 314 319 324 322 319 322 324 324 325 325 326 327 325 325 326 327 327 326 326 326 327 329 331 334 333 332 333 333 334 335 332 330 327 324 324 321 322 326 323 323 334 335 329 329 329 326 327 325 324 325 323 323 322 322 322 321 322 322
310 310 311 311 312 313 313 312 313 313 311 311 312 312 313 311 309 309 311 311 310 311 310 309 310 311 311 312 312 312 313 317 322 320 318 322 322 323 326 326 327 328 326 325 326 327 326 326 325 325 327 330 333 335 333 332 333 332 332 334 334 333 329 326 326 326 330 332 323 321 333 335 328 326 328 327 327 326 326 326 325 323 321 320 320 319 321 322
309 310 310 311 311 311 311 311 311 311 310 311 312 312 312 311 310 309 310 310 309 311 311 309 311 312 311 314 313 312 315 319 321 319 317 321 321 321 326 328 328 329 326 326 329 330 327 327 326 326 327 331 334 336 333 331 331 332 332 332 331 331 332 332 330 330 333 331 322 319 325 330 328 325 324 325 325 326 327 326 326 324 321 319 319 318 319 319
308 309 310 310 311 309 309 310 310 310 310 311 313 312 311 310 309 308 310 311 311 311 312 310 311 311 312 316 314 312 315 319 323 321 317 318 320 322 326 328 328 329 325 327 332 331 327 327 328 327 329 331 333 334 332 330 330 332 333 332 330 331 334 334 332 331 332 331 330 326 323 329 331 326 325 326 324 325 326 326 327 325 322 320 319 319 319 319
309 309 310 310 310 309 308 309 309 310 310 312 312 311 311 310 309 309 309 310 312 310 311 312 312 312 314 315 314 313 314 316 320 319 316 317 318 321 325 326 327 329 326 326 331 329 327 327 326 327 330 330 331 333 333 331 329 329 330 332 333 332 332 332 332 332 330 330 332 330 326 331 333 328 326 327 325 324 325 324 325 324 324 323 320 321 320 319
309 309 310 310 310 309 308 309 309 309 310 311 311 310 309 309 308 310 309 309 313 312 312 313 313 314 315 314 314 314 314 315 317 316 318 319 318 319 323 322 324 327 327 327 327 324 324 326 326 328 329 327 330 331 331 331 328 326 327 330 331 328 327 329 328 328 332 331 330 329 327 329 334 332 326 326 326 325 324 323 324 324 325 324 322 323 322 320
309 309 310 310 310 308 308 309 310 310 310 310 310 308 309 309 309 310 309 310 315 316 314 313 313 314 314 313 314 314 313 315 316 318 319 320 320 321 324 323 323 324 326 326 324 321 323 327 327 326 325 327 330 327 326 328 327 326 327 326 328 326 326 329 325 326 333 332 327 327 327 329 332 332 325 325 326 324 324 323 323 325 326 326 325 323 323 322
309 309 309 310 309 307 307 309 309 310 310 309 309 307 308 310 310 310 310 309 312 316 315 314 314 315 314 314 315 313 313 314 316 318 319 321 322 322 324 325 324 324 326 326 325 324 325 326 325 323 322 325 329 325 325 329 329 329 329 327 329 329 330 332 328 327 333 330 320 322 327 329 329 328 324 325 324 322 323 322 323 325 325 327 328 325 325 326
308 309 309 309 308 306 306 308 308 309 309 308 308 307 308 310 310 310 310 309 311 314 315 315 315 314 313 314 314 313 313 314 315 317 318 321 323 322 323 323 323 323 324 325 325 325 326 325 324 323 321 322 325 325 327 330 330 331 331 330 331 330 331 334 332 330 333 328 318 321 329 329 327 324 323 323 322 321 321 322 325 326 324 327 328 325 326 328
308 308 308 307 305 305 307 308 308 308 308 308 308 307 309 310 310 309 310 310 312 314 315 315 316 315 313 314 315 314 314 313 313 315 317 320 322 323 323 322 321 320 319 322 325 326 329 327 325 324 323 323 323 324 326 328 328 329 328 328 329 330 332 333 332 331 333 326 317 321 331 331 329 325 320 320 321 319 320 321 322 323 323 326 325 321 321 323
307 306 305 305 305 305 307 309 308 308 308 309 308 307 308 309 309 309 310 310 312 313 314 315 316 316 315 314 314 315 315 315 313 314 317 319 321 322 321 321 321 320 319 322 324 325 329 328 324 321 321 322 324 324 322 325 327 327 326 328 329 330 331 331 330 329 330 327 320 323 329 327 324 322 317 318 320 318 318 319 319 320 321 322 322 320 319 318
305 304 304 305 305 305 306 307 307 306 308 308 307 307 307 307 307 309 309 310 312 313 314 315 316 317 316 316 316 315 316 317 314 314 316 317 318 320 320 320 321 320 319 322 324 325 328 326 320 319 319 320 324 325 322 325 327 326 328 329 327 327 329 330 329 324 324 329 327 323 324 321 318 320 319 320 322 320 319 318 318 320 319 321 324 325 324 321
305 304 304 306 306 305 306 306 305 305 307 308 306 306 306 305 306 308 308 309 312 314 315 316 317 317 317 317 317 316 316 317 315 315 316 316 317 318 318 319 320 319 319 323 325 325 326 323 317 317 319 317 319 325 324 323 324 326 329 328 325 327 327 327 329 326 325 329 329 324 323 323 322 325 323 320 321 320 320 319 317 319 319 320 325 327 327 325
304 304 304 305 305 305 305 306 305 305 307 307 306 305 305 304 306 309 309 308 311 313 313 315 316 317 318 317 317 316 316 316 315 316 317 316 317 318 317 318 319 318 319 323 325 324 323 322 316 316 318 315 316 322 324 321 321 325 327 324 325 330 329 326 327 330 329 328 330 329 326 325 323 323 322 321 322 321 321 320 317 318 319 320 324 328 327 326
304 304 304 304 304 304 304 305 304 305 307 307 306 306 305 305 307 309 310 309 311 312 312 314 314 315 317 317 318 317 316 317 316 316 318 317 317 318 318 319 320 319 320 322 325 326 325 323 318 315 316 316 317 321 323 321 320 322 325 324 325 328 328 327 326 331 331 327 329 330 329 330 326 322 322 322 323 322 322 322 319 318 319 320 324 327 325 327
303 304 304 303 302 303 304 304 304 304 306 306 305 306 306 306 307 308 310 310 311 311 312 312 311 311 314 315 318 317 316 317 316 317 319 317 317 318 317 318 319 319 321 322 323 324 325 324 321 316 314 316 319 322 323 321 319 321 324 325 326 326 326 327 325 328 330 329 330 328 329 332 324 318 322 320 320 322 322 324 324 321 322 324 328 330 328 329
302 303 304 302 301 302 303 304 304 303 305 306 305 306 306 306 306 307 309 310 310 309 310 311 310 309 312 314 317 318 317 317 316 317 318 316 317 320 318 317 319 319 321 322 322 321 322 323 321 316 315 317 320 320 319 320 320 321 323 324 325 324 325 328 328 327 326 329 330 326 328 332 321 316 320 318 318 322 321 323 324 322 324 328 331 331 330 329
302 303 303 302 302 303 303 304 304 303 304 305 305 305 305 305 306 306 308 308 308 307 308 310 310 310 311 312 313 314 316 318 317 317 319 317 317 320 318 317 318 320 321 322 321 320 318 319 318 317 316 317 318 316 315 319 321 320 321 323 324 323 323 327 329 328 327 328 326 322 327 332 322 317 318 317 317 318 318 320 320 319 323 328 328 326 325 324
302 302 302 302 303 303 303 303 303 303 304 304 304 304 304 305 305 306 306 307 307 307 307 308 310 311 311 310 311 310 312 316 318 318 319 318 317 318 318 317 318 320 321 321 320 319 317 317 317 317 316 316 317 316 314 317 319 320 321 323 324 324 323 325 327 327 327 328 326 324 326 327 321 318 317 316 317 315 314 317 317 317 322 325 325 325 324 323
300 301 302 302 303 303 303 303 303 303 303 303 303 304 304 304 305 305 305 306 307 307 307 307 309 310 311 310 310 310 310 314 317 318 319 319 319 319 317 317 319 320 321 320 319 320 320 318 317 318 317 318 319 318 317 317 317 320 322 322 323 323 324 325 325 323 326 327 327 327 327 326 321 319 316 315 316 314 313 315 316 317 321 324 324 324 324 325
300 300 301 302 301 302 302 302 302 302 303 303 303 303 303 303 304 305 305 306 306 307 308 308 308 310 311 310 310 310 310 312 314 316 318 319 320 320 318 317 319 320 320 320 319 320 320 318 318 319 320 320 321 320 321 320 318 319 321 321 322 323 323 324 324 322 324 326 326 326 326 323 318 317 316 314 315 314 312 313 314 315 319 324 325 325 326 326
300 300 301 301 300 301 301 301 301 302 302 302 303 303 303 303 304 305 305 305 305 306 307 308 308 309 311 311 311 311 310 309 310 312 314 316 317 318 317 318 319 320 320 320 320 318 316 316 318 320 320 320 321 321 321 321 319 319 321 321 321 323 324 324 324 324 324 325 325 323 323 323 320 318 318 316 316 315 314 314 314 314 317 321 324 325 326 325
300 300 301 301 300 300 301 301 301 301 301 302 302 302 302 302 303 304 304 304 304 305 305 306 308 308 310 312 313 313 312 310 310 311 311 312 313 314 317 318 318 320 320 319 318 317 316 317 317 318 319 320 320 320 320 320 319 319 320 321 321 322 324 325 325 324 323 325 325 322 321 322 321 319 319 319 318 317 316 315 315 317 320 322 323 322 321 322
300 300 300 300 300 300 301 301 301 301 302 301 301 302 302 302 303 303 304 303 303 304 304 305 307 308 309 311 313 313 313 312 312 312 311 311 312 314 317 318 318 319 319 318 317 317 317 319 318 316 318 319 320 320 319 319 320 319 319 320 320 321 323 324 323 323 323 324 324 322 321 322 319 319 321 321 318 316 316 317 317 318 321 320 320 320 321 321
300 300 300 300 300 300 300 301 301 301 302 301 301 301 302 302 302 302 303 304 302 303 303 303 305 308 309 309 311 312 313 312 312 313 312 312 313 314 316 319 318 318 318 317 317 317 318 319 317 316 318 319 320 320 320 319 320 319 319 319 320 320 321 322 321 321 322 323 322 321 322 321 319 320 320 320 321 318 316 316 316 317 319 319 320 322 323 322
301 300 300 300 300 300 300 300 301 301 301 301 301 301 301 301 301 301 302 304 303 302 303 302 302 306 308 309 309 310 312 312 313 314 312 311 313 313 315 317 317 317 318 317 316 317 320 320 317 316 318 320 319 319 320 320 320 319 319 319 319 320 321 321 321 320 321 322 321 321 322 321 320 321 320 321 322 319 316 317 317 317 320 321 322 323 322 320
300 300 300 300 300 301 300 300 301 300 301 301 301 301 301 301 301 301 301 303 304 303 302 302 302 303 306 308 309 309 311 311 312 314 313 312 313 314 315 317 317 316 317 317 316 317 319 319 317 317 320 321 319 318 318 319 319 319 319 319 319 320 320 321 320 320 320 321 321 322 322 320 320 322 321 320 321 318 317 317 317 318 320 321 321 323 322 320
300 300 300 300 300 300 300 300 300 300 301 301 301 301 301 301 302 302 301 303 304 304 303 303 303 302 303 305 307 307 310 312 311 313 314 314 313 314 316 317 317 316 316 316 317 317 317 318 317 317 321 322 319 317 317 317 318 320 319 318 318 319 319 320 320 320 320 320 320 321 320 319 321 321 320 320 322 320 318 317 317 317 318 318 318 320 322 322
Wind_Speed
30 31 30 30 30 29 29 31 31 30 28 27 26 25 24 24 24 25 25 25 26 27 25 23 24 26 25 24 25 25 25 23 20 21 20 21 24 18 24 32 24 18 17 16 15 12 11 11 11 11 8 5 4 3 3 2 1 1 2 3 5 5 5 5 6 4 4 7 5 6 7 7 8 3 2 2 2 4 5 4 6 8 8 10 16 22 25 24
30 31 31 30 30 29 29 29 30 30 28 28 27 25 24 24 24 25 26 25 25 26 26 25 24 25 25 26 26 24 24 21 17 20 25 26 27 23 23 29 26 21 19 16 15 16 12 10 12 10 6 3 4 5 4 3 2 3 3 4 6 5 5 7 5 2 4 7 7 5 6 4 8 7 4 4 5 5 5 6 7 8 7 10 17 21 23 23
30 31 31 30 30 30 28 28 29 29 28 28 27 25 24 23 24 24 24 24 25 26 26 26 25 24 26 27 25 24 21 14 14 21 28 27 27 27 25 25 25 24 20 16 15 18 15 12 14 10 5 5 4 5 5 4 3 4 4 4 6 7 7 6 2 5 5 5 8 5 3 2 7 8 4 5 7 7 6 6 8 8 8 10 13 18 20 19
30 30 31 31 30 30 28 28 28 28 28 28 27 25 24 23 23 23 22 23 23 26 25 25 26 25 27 28 26 25 15 4 12 20 27 29 29 30 28 24 24 25 22 18 13 15 17 14 13 10 6 5 5 5 5 5 4 4 6 6 7 5 5 3 4 6 5 3 5 6 2 2 6 6 5 6 6 7 7 8 10 10 11 12 12 15 18 18
30 30 30 31 30 30 29 28 27 27 27 27 27 26 25 23 23 23 23 23 21 24 26 26 27 27 28 27 27 25 14 2 8 18 29 31 32 32 30 28 24 25 24 19 10 12 18 14 10 9 6 5 6 6 6 8 5 4 7 9 10 6 4 2 5 6 3 3 4 6 3 4 5 4 5 7 6 5 4 5 10 12 14 15 15 15 16 16
31 30 30 30 30 30 29 28 27 27 28 27 26 25 25 23 23 24 24 25 22 22 24 27 29 29 29 28 28 25 15 6 4 7 32 34 34 33 29 29 27 27 24 15 7 7 13 13 11 8 5 6 8 8 7 8 8 5 6 8 10 9 5 3 5 4 3 0 3 4 2 4 5 4 5 7 5 4 3 3 2 9 18 20 18 16 14 14
31 30 31 30 29 30 29 28 27 28 28 28 27 25 25 23 23 23 23 25 24 23 22 27 32 32 32 28 26 21 12 12 6 4 27 36 35 35 29 28 29 29 23 13 9 5 9 12 13 9 6 7 8 9 9 8 9 7 6 7 9 11 7 3 4 2 4 2 1 1 2 3 6 4 5 8 6 4 5 6 7 10 20 21 17 14 14 15
31 31 31 31 30 29 28 29 28 28 28 28 27 25 25 23 22 23 22 23 23 25 22 26 36 36 37 30 19 15 13 15 3 4 22 36 35 36 31 26 27 29 24 17 13 9 8 12 12 9 8 8 7 9 9 8 10 10 8 7 5 5 4 4 4 1 1 2 2 2 1 4 6 1 3 8 7 4 6 5 7 12 16 15 13 13 12 13
30 31 31 32 31 30 29 29 28 29 28 27 27 25 25 23 22 22 22 21 20 24 22 26 38 38 40 29 11 11 18 23 16 4 16 32 34 36 33 26 25 26 23 19 12 8 8 9 11 10 8 9 9 9 10 9 7 8 9 8 4 3 3 3 3 4 2 1 0 2 5 6 3 3 3 7 7 5 7 7 7 10 12 12 12 12 12 12
30 31 32 32 32 31 29 29 29 29 28 27 25 24 24 23 23 23 24 22 19 22 21 25 40 42 38 26 11 11 16 27 28 13 14 29 35 35 33 28 26 24 20 17 10 5 3 6 10 8 5 6 8 8 10 9 3 3 7 10 9 6 5 4 4 5 4 3 3 4 6 6 3 2 5 7 9 8 8 8 7 8 11 11 11 11 12 12
30 31 33 33 32 32 30 29 29 29 29 27 25 24 22 22 23 24 25 23 20 21 19 23 40 46 35 23 14 10 10 25 30 20 16 25 34 34 31 30 28 26 21 15 8 4 3 7 10 5 1 3 6 7 10 8 4 3 4 9 12 6 5 6 6 6 4 3 5 4 7 5 3 3 7 4 6 9 9 8 8 8 8 10 11 11 11 12
31 32 32 32 32 32 32 31 29 29 28 27 26 25 23 22 22 22 24 23 22 22 19 20 35 41 29 17 13 7 11 27 29 22 19 24 30 27 25 28 27 27 26 17 8 7 6 10 12 6 4 1 3 6 8 5 5 5 3 6 9 6 6 8 7 6 5 4 7 5 6 6 5 7 8 3 1 5 9 8 8 8 7 8 9 9 9 12
32 31 32 32 31 32 33 32 30 29 28 27 26 25 24 22 22 22 22 23 23 24 21 19 30 32 18 10 12 11 16 27 29 22 21 25 25 19 17 22 23 24 24 17 10 7 6 11 13 6 2 2 3 4 3 6 5 5 4 4 5 5 7 9 8 7 6 5 7 6 2 7 10 11 10 7 5 5 7 8 8 8 7 7 8 8 8 11
33 31 32 32 32 33 33 32 30 30 28 27 25 24 24 23 24 21 20 24 23 24 22 20 31 27 12 6 8 17 22 24 26 24 25 26 22 16 14 16 19 19 17 13 10 6 4 9 11 6 2 0 2 4 2 5 5 5 5 4 4 4 5 9 10 10 8 6 9 6 4 7 8 11 13 12 11 11 9 8 9 8 7 7 7 8 8 10
33 31 32 33 33 33 33 32 30 30 28 26 24 22 22 22 22 20 20 23 22 24 20 19 32 22 5 4 7 20 26 21 23 26 28 28 24 18 15 16 15 14 13 10 7 5 3 5 5 3 3 2 1 3 3 3 4 5 6 5 5 5 4 7 11 13 10 6 9 7 4 8 8 10 12 12 12 13 11 9 9 9 9 8 7 8 7 8
32 31 32 32 32 32 33 32 30 29 26 23 23 19 19 21 21 20 21 21 18 22 19 17 30 22 3 2 12 21 22 18 26 28 28 30 26 20 19 20 15 12 12 9 8 6 5 5 2 2 4 3 1 5 4 3 4 6 7 5 5 6 5 5 10 14 12 6 8 10 5 5 6 6 5 9 11 11 9 9 10 10 9 9 7 7 7 7
32 31 32 30 29 31 33 32 30 28 26 23 22 18 18 20 20 19 19 18 16 19 17 9 13 12 4 5 13 17 17 19 29 29 27 30 28 23 22 17 13 15 14 11 8 6 4 3 1 1 1 2 2 4 6 8 8 6 6 4 5 9 6 4 8 11 12 8 7 11 9 7 4 1 4 5 7 8 8 9 9 9 9 9 8 7 7 7
32 32 32 31 30 32 33 32 30 28 27 24 21 20 20 21 21 20 17 16 13 11 10 5 2 2 3 6 5 11 21 23 28 29 26 29 29 28 24 14 12 15 11 6 4 4 2 1 1 2 2 3 5 8 10 10 9 8 7 6 5 8 9 7 7 9 13 11 8 9 10 12 9 4 4 5 7 7 8 8 7 8 8 8 8 8 8 8
31 31 31 31 31 32 32 32 30 28 28 25 22 21 21 18 15 16 18 16 9 5 4 5 4 3 4 0 7 7 24 27 26 26 25 29 28 25 23 18 15 14 9 3 5 5 4 2 3 4 6 9 10 10 10 7 9 11 9 8 6 6 9 7 4 9 14 11 9 10 10 12 11 10 7 7 8 8 8 7 6 7 7 8 8 7 8 9
30 29 30 30 30 30 30 31 31 29 28 26 26 21 14 11 6 6 10 10 8 4 4 3 3 6 10 7 8 6 23 27 22 21 25 32 31 23 15 15 13 12 12 10 8 7 6 5 6 9 11 12 11 10 11 8 9 12 10 9 9 6 7 7 4 7 11 8 7 10 10 11 11 11 10 8 8 9 9 9 8 7 6 6 8 8 9 9
30 29 29 30 31 30 29 31 31 31 30 31 30 14 5 9 5 4 6 4 6 4 3 4 5 4 11 9 7 1 9 16 16 17 28 34 32 22 10 11 13 10 14 14 9 6 6 8 13 15 12 11 10 11 14 14 11 12 10 9 10 7 4 4 7 8 8 5 6 9 10 12 11 10 10 8 8 10 11 10 9 9 8 6 8 9 9 8
31 31 31 31 30 30 30 31 31 31 29 31 27 8 5 9 5 9 11 3 4 5 2 1 2 5 7 10 11 8 7 10 16 14 25 30 23 16 10 11 13 10 14 13 8 8 8 12 19 18 13 10 11 14 16 17 12 8 9 8 8 8 3 4 7 7 5 3 4 7 9 10 11 11 10 9 9 10 10 11 11 10 9 8 9 9 9 8
31 32 33 33 31 30 31 31 31 31 28 27 22 9 8 12 9 15 13 2 2 5 5 7 6 6 6 10 8 7 10 13 19 13 23 26 15 13 14 13 14 13 15 14 10 11 10 14 20 18 14 14 13 15 17 15 10 5 6 7 7 9 6 3 5 6 5 3 3 3 5 6 6 8 8 9 10 9 8 10 11 10 11 12 12 10 10 10
30 33 34 33 34 32 32 33 31 31 28 25 22 13 10 14 15 16 9 2 2 4 8 11 7 6 8 7 4 6 11 9 15 15 22 24 13 11 13 14 16 13 15 18 18 17 12 8 13 16 16 17 13 14 14 10 7 5 5 5 5 8 8 4 5 5 3 3 4 1 4 6 6 8 8 8 9 10 9 9 10 10 10 11 11 11 11 12
30 32 33 33 34 34 35 33 28 28 25 21 19 15 13 16 18 15 5 1 2 2 7 10 4 7 11 5 3 4 10 9 10 16 20 22 17 11 9 10 11 12 18 22 19 15 9 9 15 17 16 16 13 12 12 9 6 5 5 5 2 5 5 8 8 5 2 4 5 4 2 5 6 10 12 10 10 12 11 12 12 11 11 11 10 11 11 12
28 28 31 34 34 37 33 21 22 27 20 13 16 17 17 20 18 12 3 1 2 2 8 10 6 7 10 6 1 2 8 9 7 17 19 17 13 8 8 7 4 11 20 19 12 7 7 13 18 19 18 18 14 11 12 10 6 5 6 6 5 6 4 9 8 5 2 3 3 5 4 4 4 6 9 8 9 12 12 14 15 12 12 12 11 10 10 10
28 28 31 32 33 36 23 9 20 24 11 9 18 21 21 23 20 11 3 3 3 4 9 9 6 8 9 6 7 4 5 4 7 15 16 12 6 4 6 9 5 9 13 10 7 5 10 17 19 20 19 16 14 13 14 13 8 5 6 10 10 7 3 6 6 4 3 1 1 3 3 3 6 6 7 7 8 9 9 11 14 14 13 12 11 11 11 11
29 31 32 29 32 32 16 12 22 16 8 15 22 24 26 25 19 9 3 4 2 4 8 6 5 9 8 6 10 8 7 3 4 9 11 10 5 4 4 9 8 11 15 12 9 9 16 20 23 25 20 14 14 13 14 16 9 4 6 12 11 5 1 3 5 3 1 4 2 5 3 2 6 4 5 8 9 10 10 9 11 12 13 13 12 12 13 14
29 30 30 29 32 28 14 15 19 12 16 24 22 24 28 21 11 3 2 4 1 3 5 7 7 8 8 5 8 8 8 4 2 2 8 7 2 3 3 5 4 8 16 16 10 8 13 18 22 23 17 13 13 9 9 14 8 3 4 8 4 3 3 3 2 2 2 1 5 6 5 3 5 4 5 6 8 10 11 10 10 12 12 13 13 13 13 13
29 29 29 31 31 21 11 12 16 17 23 26 24 25 23 13 5 2 4 3 2 3 5 7 8 10 12 7 4 7 8 5 4 1 7 5 1 2 3 4 3 1 10 12 5 2 7 12 14 12 11 10 9 7 3 6 6 2 8 10 7 4 4 4 2 4 2 3 6 8 9 5 3 5 6 6 8 9 9 9 9 10 10 11 12 13 12 11
30 29 30 31 27 17 9 8 16 23 27 29 27 24 15 5 1 5 6 0 2 4 6 6 9 13 16 10 3 4 7 5 3 3 5 6 5 4 3 4 3 2 4 7 1 1 7 13 9 6 8 9 10 6 1 2 5 4 6 6 5 4 4 3 3 3 2 5 3 6 8 6 5 6 5 6 7 8 9 9 9 9 9 10 11 12 11 10
29 28 29 28 24 18 9 8 17 23 29 33 25 14 7 3 2 5 3 2 1 3 6 8 11 12 16 14 6 5 6 3 3 4 3 7 9 7 8 8 5 2 4 6 4 1 6 8 8 6 5 9 13 8 3 4 6 4 6 7 6 3 2 2 2 1 5 4 1 1 3 5 7 7 7 9 8 7 7 7 7 8 8 6 6 8 9 8
28 28 28 27 24 17 10 12 19 23 29 31 18 6 4 5 5 6 4 2 1 2 5 9 13 15 17 15 9 7 6 2 3 4 4 7 8 9 12 11 8 4 2 7 8 6 3 2 6 10 4 9 15 11 7 7 8 8 9 8 6 5 4 5 4 3 4 3 2 2 4 3 6 4 9 13 15 14 9 7 8 7 6 2 1 1 1 2
28 27 25 23 20 15 13 16 22 28 28 19 9 5 5 5 5 8 7 2 0 1 3 7 13 16 17 15 12 12 8 3 3 4 5 6 7 8 10 10 9 4 2 5 5 9 9 1 7 12 7 12 17 13 13 12 11 11 8 7 6 5 5 6 5 4 3 0 1 3 3 3 4 2 6 11 14 12 7 8 8 5 4 5 5 4 5 5
27 25 21 18 15 14 17 18 23 29 21 9 5 6 6 5 4 6 7 3 2 2 1 5 13 13 12 12 11 15 12 4 5 5 4 5 6 7 8 9 13 7 3 5 3 5 9 2 5 7 4 14 18 12 11 11 8 7 5 6 6 4 4 3 2 4 3 2 1 4 2 4 3 6 8 7 9 8 6 6 6 6 4 6 5 3 3 3
27 24 18 15 14 16 17 16 22 27 15 6 6 5 6 6 3 4 6 4 4 4 3 7 11 9 8 7 7 13 11 5 7 5 3 4 4 6 8 7 12 12 8 6 1 3 6 1 3 2 0 9 12 10 12 10 7 6 5 7 4 2 4 4 1 1 3 1 3 4 4 4 2 9 11 11 11 8 7 7 7 8 6 6 6 6 6 5
26 20 13 11 14 17 16 14 19 21 10 5 7 6 6 6 2 1 5 7 5 4 4 5 7 7 7 6 6 12 11 5 7 5 0 3 3 6 8 4 9 13 9 5 1 2 3 2 2 2 2 3 2 7 9 4 4 6 7 7 4 4 3 3 1 1 2 4 3 5 8 4 2 5 6 10 14 11 9 8 8 8 7 7 7 6 7 7
21 14 9 10 14 14 13 14 17 14 4 3 8 8 5 4 2 1 1 5 5 4 2 3 4 5 7 7 7 12 13 8 8 6 2 2 2 6 10 6 9 15 12 7 1 1 3 3 2 3 2 1 4 5 6 2 1 4 6 8 6 1 2 4 3 3 4 5 4 5 8 5 6 6 2 6 11 10 9 8 8 9 8 7 7 7 8 7
16 9 5 9 15 13 13 14 14 7 2 5 8 6 4 3 3 2 3 2 1 3 4 2 2 1 3 7 8 11 14 12 9 7 4 3 1 6 11 6 7 15 15 9 4 1 2 2 2 2 2 1 0 4 7 3 1 2 5 6 4 3 4 6 5 2 3 4 4 3 4 4 7 7 5 7 9 8 8 8 8 9 9 7 6 7 8 7
7 4 3 10 15 13 13 12 8 3 3 6 5 3 4 4 4 3 4 5 4 0 2 1 2 0 2 4 9 10 10 11 11 8 6 6 3 4 9 7 7 14 14 8 3 1 2 1 4 1 3 2 4 5 10 12 7 5 7 8 6 3 2 3 4 2 2 3 3 4 4 5 4 5 9 12 8 5 4 5 6 6 7 6 5 7 7 6
1 3 4 11 15 12 11 8 3 2 2 2 2 3 4 3 3 3 3 6 4 2 3 2 3 2 1 1 5 9 8 8 10 8 6 8 5 3 8 11 10 13 12 7 4 3 1 1 4 5 2 5 5 3 6 10 11 11 9 10 10 7 4 4 6 4 2 2 3 3 5 6 4 1 3 5 4 3 3 5 5 5 6 7 6 6 7 7
1 3 5 15 18 11 7 4 2 2 1 2 3 3 2 1 1 1 2 4 3 1 2 2 3 3 2 1 0 2 3 5 9 8 5 10 11 7 9 12 12 13 11 7 5 4 3 2 4 4 4 4 2 2 2 2 5 7 6 7 9 7 7 8 8 6 6 6 3 1 4 6 4 3 3 5 6 5 3 5 7 7 6 6 6 6 6 6
2 4 7 16 17 9 5 3 2 1 1 2 3 2 1 1 1 1 1 1 2 2 1 0 1 1 2 2 2 2 1 2 8 9 6 9 12 9 14 17 13 12 10 6 6 5 3 2 4 3 2 2 4 4 4 3 1 4 4 4 7 9 9 7 5 4 6 8 6 3 5 6 4 4 2 4 6 5 2 3 5 6 6 6 6 6 6 6
4 4 4 10 12 6 3 3 4 3 2 2 4 3 1 1 1 1 1 2 2 1 2 1 1 1 1 3 3 2 1 1 4 9 7 7 7 6 15 21 16 13 11 7 6 5 2 3 4 5 2 1 3 3 3 3 2 5 6 7 9 13 12 5 2 3 4 8 10 7 7 7 3 4 2 3 4 4 3 3 4 4 5 7 6 6 6 6
5 3 2 3 3 1 1 1 2 4 4 4 4 4 3 2 2 2 3 2 2 1 2 2 2 1 2 4 4 3 2 2 1 3 4 3 1 2 12 20 17 14 11 8 8 5 3 4 5 6 7 7 5 6 5 5 5 5 8 13 14 16 17 11 5 5 5 7 9 9 8 5 1 2 0 2 2 3 3 4 4 4 3 5 6 6 6 6
4 3 3 2 2 1 1 2 2 1 5 6 3 4 5 4 3 3 3 3 3 2 1 1 2 1 3 5 3 2 3 3 1 2 3 1 2 2 7 16 16 15 13 14 12 6 3 4 5 4 5 6 4 3 4 7 8 9 11 16 15 14 14 10 5 6 9 7 6 9 11 7 4 3 2 2 3 5 5 5 5 5 4 2 4 5 5 6
2 3 5 4 2 1 2 2 2 2 3 6 4 4 7 7 4 4 4 3 2 1 1 2 1 2 2 4 3 2 4 4 3 2 2 1 3 5 3 12 15 14 15 13 10 7 3 4 6 4 5 3 2 2 10 11 13 16 16 16 16 13 12 10 10 12 11 7 7 12 14 14 11 6 4 5 6 6 6 6 6 6 5 4 4 4 4 5
1 3 5 4 2 4 5 5 6 5 5 6 5 5 8 8 6 4 4 3 3 2 2 2 3 4 3 2 2 3 5 4 4 3 1 1 2 4 2 8 11 12 14 9 7 6 3 3 6 4 5 6 6 1 9 12 12 13 14 16 17 16 15 15 16 17 13 8 13 17 16 16 13 7 7 8 7 7 7 7 6 5 6 5 5 5 5 6
1 2 4 3 1 4 7 6 7 8 6 5 5 5 7 8 9 7 4 2 3 4 4 4 5 6 5 4 3 2 4 5 3 3 3 2 1 2 1 3 6 9 11 8 6 5 3 4 7 6 5 7 7 6 1 8 9 9 12 15 15 16 18 18 17 18 14 12 19 19 16 17 12 9 9 8 6 7 6 5 5 6 7 6 7 7 7 8
1 1 4 4 2 3 5 4 6 7 6 5 5 6 6 7 9 8 6 6 4 4 7 9 9 7 7 7 6 6 6 6 4 3 5 3 1 1 2 1 3 6 8 7 5 5 5 6 8 9 4 6 7 7 6 4 6 11 15 16 15 16 17 18 18 17 14 17 24 21 15 16 10 8 10 10 6 7 6 5 6 7 8 8 7 8 8 8
2 3 3 5 4 4 6 5 6 6 5 5 6 6 6 8 9 7 6 7 8 5 8 12 11 7 5 6 9 10 8 7 6 5 8 7 3 2 3 2 2 6 7 6 6 6 6 5 6 7 5 7 10 10 8 7 6 8 13 16 18 18 18 20 22 19 17 20 22 17 15 14 7 6 7 8 6 6 7 9 9 7 7 9 9 9 9 8
4 3 2 3 4 5 5 5 6 6 5 6 7 7 8 9 8 7 5 5 9 9 8 10 9 5 4 8 12 12 8 7 7 5 7 7 3 0 2 3 2 4 6 6 6 6 6 5 5 7 7 8 9 12 11 7 4 7 13 19 24 25 24 22 19 17 18 18 15 14 15 9 5 7 8 7 7 9 11 11 11 11 10 9 9 9 8 9
Wind_Direction
242 243 243 243 243 244 246 246 245 244 243 244 243 241 242 242 240 242 243 244 239 233 233 232 225 219 218 220 221 224 220 211 213 211 213 213 203 203 203 203 216 220 196 182 185 187 189 201 201 195 196 174 173 187 154 160 264 236 216 237 248 239 237 242 230 211 130 136 154 187 187 153 149 177 134 158 179 127 149 140 97 82 84 101 113 122 131 139
240 241 242 242 241 242 244 244 243 244 242 243 243 240 239 238 240 241 242 245 241 232 230 229 223 216 214 213 212 215 210 208 223 226 219 211 205 203 198 201 209 210 198 192 197 194 193 200 197 194 198 198 174 162 161 159 168 209 229 234 238 244 248 257 239 154 101 140 146 170 201 177 152 162 145 158 181 156 156 158 132 113 105 115 122 125 133 140
240 239 241 240 239 240 241 242 242 242 241 241 242 238 235 237 240 240 239 242 241 233 228 226 221 213 209 205 204 205 199 209 241 238 223 211 209 209 205 204 205 206 198 197 208 204 203 207 198 193 202 220 194 168 172 168 166 203 230 239 236 247 265 288 8 74 59 115 136 147 203 204 147 148 150 179 183 179 187 173 157 155 151 143 135 134 138 145
239 238 239 239 238 237 238 239 240 240 239 240 239 235 232 233 238 237 234 238 238 233 227 224 218 209 203 195 197 196 180 226 250 234 224 211 208 209 209 206 200 203 199 198 216 218 214 215 209 199 201 225 213 190 185 175 165 185 212 237 242 253 283 298 58 75 50 52 124 126 144 183 150 141 155 190 187 184 204 191 179 174 161 154 146 145 148 152
238 237 237 236 235 235 236 237 238 238 236 237 237 234 229 230 237 236 233 233 234 231 225 221 216 208 199 188 190 181 154 249 250 224 218 209 205 205 207 204 196 196 195 200 219 229 217 211 218 214 203 225 224 213 207 190 179 206 217 232 248 276 327 5 56 55 39 15 99 125 169 172 150 155 171 199 198 177 201 184 184 177 158 157 155 152 156 159
236 236 235 234 233 233 233 234 237 237 234 235 234 231 227 228 235 238 236 232 230 231 223 217 213 205 196 187 184 170 159 206 11 224 209 202 203 201 201 201 199 194 188 194 202 232 225 203 207 216 201 219 226 223 221 195 180 218 229 227 244 263 291 48 58 15 355 17 136 146 176 132 155 189 190 213 210 148 106 77 143 165 155 156 154 154 162 167
235 234 233 232 231 231 232 233 234 233 232 232 231 229 226 226 232 238 239 234 232 231 224 215 209 201 191 181 178 174 186 212 26 2 199 196 201 198 197 194 193 190 182 181 166 187 242 214 203 203 201 216 225 224 226 206 190 208 235 234 237 244 248 76 79 339 336 326 95 56 53 136 196 204 184 211 223 147 104 70 58 114 142 149 151 159 171 173
233 233 232 231 230 230 231 232 231 230 230 229 229 227 223 224 229 235 238 237 233 228 227 215 204 193 180 170 168 184 212 210 182 1 194 193 195 194 193 185 182 181 176 181 167 165 225 228 210 194 203 212 219 223 224 218 209 212 223 239 245 237 227 88 105 190 310 323 13 347 268 214 209 153 182 206 223 185 125 104 93 114 136 150 157 165 173 175
231 231 230 229 229 229 229 230 229 227 226 224 225 223 221 220 222 230 235 237 234 225 228 216 200 185 173 166 160 200 214 201 187 191 191 190 190 189 189 181 177 173 172 181 171 163 195 228 222 207 214 216 216 223 224 222 223 220 215 229 241 220 196 128 162 192 197 225 17 251 247 238 181 76 246 217 221 198 137 135 135 139 149 158 164 167 175 177
229 228 228 228 227 227 227 227 227 224 221 219 220 220 219 218 219 228 232 236 235 222 226 215 194 180 168 162 170 213 214 194 191 199 190 189 188 186 186 182 175 167 166 173 165 156 186 254 246 233 238 236 228 228 231 222 205 233 218 228 232 213 193 170 199 203 182 209 203 221 245 234 143 117 237 218 213 194 143 151 161 164 166 166 170 169 176 180
226 226 226 227 226 226 224 224 224 220 218 215 214 215 215 218 221 226 228 232 232 221 227 215 189 176 167 164 186 213 191 179 187 196 187 185 186 183 183 182 176 168 162 163 154 115 49 326 299 281 223 269 257 239 241 226 190 239 239 232 225 210 195 182 214 212 161 203 202 215 265 246 130 198 231 231 217 183 152 163 171 180 183 174 173 170 177 183
223 223 224 225 224 223 221 222 220 216 217 213 211 211 211 216 218 222 224 226 228 219 221 212 187 175 165 171 199 194 162 172 175 179 179 181 184 182 181 179 177 173 167 159 136 102 65 1 326 270 177 157 255 241 236 197 183 239 267 241 215 206 222 198 208 207 162 188 184 176 280 254 205 221 220 216 238 163 158 172 177 186 192 185 179 172 177 182
221 220 221 221 220 220 219 219 216 213 213 211 209 209 210 214 214 218 221 219 220 215 216 213 193 181 169 182 201 176 161 168 167 163 165 174 181 179 177 177 174 173 169 157 129 106 75 13 338 279 198 139 195 273 253 160 168 214 225 246 215 207 227 206 201 204 186 180 167 159 261 244 225 223 211 189 165 164 179 182 179 189 193 191 187 177 179 182
221 219 218 217 217 217 216 215 212 209 209 209 208 207 209 212 212 213 215 213 210 210 216 215 200 194 190 191 183 179 171 165 168 160 153 166 177 171 166 170 166 165 161 146 127 118 79 8 338 301 297 95 192 303 289 166 181 193 200 228 222 220 220 202 195 195 198 177 156 164 244 251 239 223 207 191 176 177 192 191 181 188 193 192 189 183 184 186
221 218 216 216 215 215 213 210 208 207 206 207 204 204 208 207 205 204 205 206 202 206 211 208 202 198 214 213 167 182 179 168 175 167 157 164 172 172 162 156 153 153 152 135 123 130 85 22 350 328 311 328 279 240 203 172 194 192 198 203 208 226 229 207 191 187 195 177 160 169 237 251 257 246 212 188 183 185 192 194 184 187 191 190 189 187 188 192
221 217 215 213 211 212 210 205 204 202 200 202 201 201 203 197 193 192 194 197 198 203 200 198 199 195 245 215 156 173 177 177 186 177 166 167 171 172 154 143 135 130 135 114 103 120 85 68 68 355 320 319 205 194 179 188 205 204 207 196 190 204 239 226 184 184 184 155 180 197 222 250 254 261 202 166 179 190 198 199 189 189 190 188 185 185 189 193
218 215 214 211 209 208 205 201 198 197 195 195 195 193 190 186 184 183 185 191 193 190 188 200 203 202 245 145 145 169 174 178 186 179 171 170 172 163 144 136 126 113 105 87 89 105 81 73 151 181 324 306 245 191 186 204 203 197 203 207 195 192 219 222 165 176 176 157 191 206 227 258 267 19 113 150 180 189 207 209 198 192 187 187 182 182 189 191
213 212 211 209 208 204 200 197 195 194 190 187 188 186 179 173 172 170 163 165 163 158 178 217 256 283 227 142 140 182 170 168 176 179 175 167 165 160 152 143 122 115 104 80 95 109 105 140 151 152 176 234 227 203 200 203 190 181 186 197 208 192 205 211 166 168 177 183 199 197 223 247 254 243 167 181 192 195 211 215 214 205 190 184 179 183 190 194
209 210 209 209 206 200 197 194 193 191 185 181 178 169 160 155 156 162 154 147 153 147 164 201 185 237 239 19 325 218 170 163 165 172 170 160 157 159 159 148 135 143 148 167 177 162 156 131 127 170 198 208 208 209 214 201 178 180 178 187 213 202 201 211 170 166 177 189 204 199 217 233 240 244 222 196 191 197 209 212 226 225 204 183 175 186 191 197
206 207 206 206 201 197 194 192 191 186 180 173 163 151 141 146 150 170 161 159 196 189 109 87 129 223 251 294 322 187 163 163 163 163 165 160 153 152 159 150 151 172 176 178 174 165 160 157 190 199 197 203 207 221 234 231 195 184 174 185 212 218 204 198 150 164 177 182 205 209 226 233 232 238 233 211 191 197 204 203 213 223 218 188 177 193 198 204
202 203 202 200 196 194 191 189 187 182 178 169 159 152 155 166 168 170 155 165 217 203 103 74 65 245 247 273 300 234 157 167 166 161 161 158 149 146 164 161 159 185 188 177 152 144 167 184 208 204 190 193 204 220 237 243 220 190 178 184 204 218 214 159 137 161 174 175 213 214 227 240 238 240 238 223 201 203 205 201 205 210 214 199 189 199 202 205
200 199 198 196 193 193 189 186 183 177 175 168 164 178 192 168 150 149 149 138 222 221 236 146 23 297 266 268 276 307 301 186 165 164 159 155 152 151 167 170 167 180 182 174 145 149 182 206 207 195 179 189 204 213 228 240 235 201 180 181 198 205 180 95 134 159 161 169 222 220 229 240 239 239 237 231 224 216 205 200 202 201 202 206 205 203 200 200
199 196 195 194 189 190 188 183 180 175 172 170 174 190 175 166 148 146 149 101 185 206 229 215 228 262 266 266 274 333 299 197 164 170 164 158 159 157 162 172 175 173 171 176 169 169 196 213 200 180 173 193 205 213 222 234 240 221 184 185 194 194 188 155 166 164 155 192 256 267 266 259 249 256 250 235 237 236 218 209 206 198 199 206 207 204 198 198
196 193 192 191 186 186 185 179 176 176 176 174 180 185 167 159 148 148 149 93 172 196 205 207 214 236 242 265 307 341 300 226 167 166 169 163 153 150 166 175 176 172 173 180 180 189 207 189 166 166 177 193 204 215 221 228 232 230 208 195 187 194 189 132 147 160 143 238 264 300 299 273 232 240 252 244 242 243 235 226 220 208 207 208 206 206 202 199
194 191 189 187 185 182 179 176 174 178 181 177 180 178 159 154 151 153 156 100 211 195 189 194 198 237 236 255 322 326 306 272 180 161 171 169 151 146 171 179 179 175 174 180 184 200 203 136 146 170 182 190 201 213 215 211 211 226 219 203 226 226 169 118 136 152 125 253 223 172 252 273 218 217 230 230 229 232 229 227 227 218 214 214 210 208 204 202
192 190 187 184 183 178 174 175 177 180 183 182 176 165 156 161 159 154 158 291 258 175 159 167 167 204 215 214 164 359 306 283 171 152 167 169 148 141 169 176 189 177 173 177 187 206 181 151 159 176 182 184 194 211 212 203 200 219 202 181 234 258 162 136 147 151 181 233 196 175 207 265 274 245 237 234 229 226 220 219 222 221 218 216 214 212 206 206
185 187 184 183 182 174 169 167 175 180 188 172 161 156 159 166 162 154 172 267 255 170 149 161 175 163 162 162 135 125 283 285 131 153 169 166 137 102 164 174 179 176 168 173 198 189 158 160 165 176 184 186 189 198 202 197 200 212 168 168 214 239 172 143 138 160 207 80 7 235 207 258 279 255 241 261 272 257 235 219 216 218 221 218 216 214 211 212
181 183 178 181 177 169 162 159 170 180 169 148 148 154 160 161 159 155 194 240 218 139 145 157 163 142 132 128 138 170 258 286 137 168 162 155 139 79 155 181 188 179 168 177 197 170 157 166 172 176 182 191 193 186 183 186 201 250 172 171 199 215 134 112 121 181 206 61 259 233 161 235 264 237 214 235 251 257 251 235 222 217 218 218 219 216 214 217
177 179 176 175 170 167 168 167 171 175 153 147 147 154 153 147 142 131 213 226 133 115 158 152 146 134 124 128 156 197 257 289 285 183 139 147 132 66 128 172 199 188 181 189 195 166 164 173 175 176 181 193 185 159 164 181 202 291 107 116 110 74 44 45 116 156 76 45 235 205 167 209 261 245 212 212 224 234 237 236 232 224 219 216 218 220 215 213
171 174 175 171 168 171 174 168 171 165 154 153 151 147 141 127 110 140 199 221 78 134 162 151 162 146 133 147 196 215 235 262 293 196 141 145 127 79 96 95 57 194 194 194 193 165 161 166 173 178 184 178 145 115 133 182 186 136 91 83 71 73 60 31 33 67 62 260 226 190 188 200 262 249 212 201 209 209 215 226 233 232 228 221 218 221 219 211
167 171 174 171 171 174 168 167 165 155 152 156 149 137 127 108 126 179 187 226 50 151 153 146 161 145 139 156 189 196 221 260 282 217 155 140 155 156 127 122 88 29 197 171 141 323 154 159 167 173 176 149 120 120 92 165 172 124 104 115 105 86 64 34 25 55 214 243 220 188 193 196 235 248 219 217 217 202 204 213 223 232 235 230 220 216 215 210
165 166 172 173 175 177 176 178 164 152 150 151 144 130 129 136 209 210 182 81 51 174 163 158 161 157 158 172 189 174 191 242 226 235 217 153 163 176 176 178 150 123 205 170 150 186 162 164 155 141 167 149 139 150 151 171 182 130 129 145 129 113 127 166 167 203 229 236 251 175 170 204 235 250 250 263 269 247 216 201 211 230 247 261 241 218 212 208
160 160 170 177 179 177 181 179 163 153 150 147 139 129 163 174 194 207 197 158 228 207 177 165 163 167 166 174 201 181 168 243 204 232 256 175 166 182 189 186 150 113 203 168 152 156 152 311 166 151 156 160 157 160 163 176 182 168 167 167 159 153 164 189 190 221 244 231 213 108 77 271 268 257 234 244 257 257 245 229 227 227 232 244 64 134 129 117
157 157 164 174 179 173 170 173 161 155 157 155 146 146 174 203 193 189 198 200 34 171 194 177 166 166 167 177 194 179 174 255 212 231 264 192 173 183 189 190 166 106 59 165 173 170 163 235 189 168 159 169 171 174 172 169 175 183 178 165 172 167 173 189 180 200 218 97 203 153 118 213 218 229 223 228 247 252 243 233 229 227 196 142 113 93 75 82
153 153 149 154 168 169 166 168 160 160 164 161 148 158 183 205 190 184 194 186 146 155 193 187 168 163 175 184 183 180 186 199 182 216 264 210 197 185 177 187 180 159 135 179 243 190 171 182 192 179 171 174 172 171 165 152 162 187 164 162 194 190 159 149 140 183 159 72 234 200 224 227 216 288 285 265 260 246 223 218 213 236 217 149 150 171 150 162
141 142 138 140 155 161 160 160 160 164 164 140 147 181 201 199 193 177 171 169 176 156 154 185 173 164 181 182 173 181 182 155 159 186 257 230 233 200 184 187 181 173 166 168 187 201 182 170 194 190 86 174 166 157 165 160 159 173 172 178 189 91 117 118 71 95 97 268 233 187 250 277 282 286 274 254 258 247 223 219 211 232 221 173 197 205 182 183
132 133 131 137 153 162 159 147 153 163 162 143 168 196 205 205 234 123 155 175 174 125 134 183 178 172 175 169 178 178 164 141 157 158 196 213 236 209 190 183 179 179 182 174 98 235 173 96 250 225 138 192 158 131 152 156 142 162 184 176 123 44 55 101 163 102 124 249 245 188 223 226 177 263 250 219 237 245 228 211 205 222 215 199 216 202 179 181
124 119 112 133 146 159 164 140 135 149 152 162 188 203 202 199 207 44 138 186 166 119 146 202 190 190 179 170 180 172 163 165 161 145 152 199 239 199 180 177 180 181 193 193 131 282 182 112 316 282 162 296 354 107 130 31 27 157 165 159 140 136 179 155 187 193 178 226 270 220 219 210 196 229 261 199 216 232 228 201 195 210 206 206 208 185 179 181
119 112 102 146 144 144 156 139 121 124 150 177 194 203 189 197 200 121 43 9 102 147 183 187 153 213 205 178 171 165 172 178 162 152 178 186 233 197 181 179 177 180 192 193 163 279 252 153 171 292 309 264 265 163 165 164 360 72 131 162 183 193 179 178 191 178 160 208 267 253 215 229 216 200 210 230 220 215 214 197 196 203 191 191 189 175 181 181
114 113 113 161 153 137 138 133 113 113 176 182 200 208 181 211 227 154 76 37 24 86 182 132 128 102 313 197 173 166 179 185 171 171 183 171 170 203 190 185 177 181 187 185 158 82 352 196 161 127 326 232 191 195 182 175 171 158 164 182 192 182 150 178 197 203 147 180 247 265 249 259 247 188 198 220 222 207 197 184 188 184 160 151 144 150 163 167
16 95 121 167 160 134 117 115 121 165 179 187 214 228 208 218 236 194 94 69 57 21 24 64 125 140 14 251 178 166 175 188 183 180 174 167 175 214 199 190 176 173 178 180 173 146 70 280 151 143 204 205 195 212 201 190 183 178 183 184 182 176 148 163 201 210 199 200 203 228 261 265 265 261 167 177 161 109 88 108 117 115 113 110 105 120 135 143
51 101 146 167 161 142 122 124 152 165 180 205 210 231 242 360 327 250 59 83 107 45 22 56 105 125 107 36 32 136 159 186 187 189 184 184 196 200 185 184 175 170 177 181 173 152 87 80 136 148 185 195 212 289 299 247 195 191 201 185 177 177 165 180 205 196 191 221 220 189 280 276 278 330 37 102 114 103 79 87 103 107 110 119 131 129 120 128
69 90 137 163 164 157 149 147 141 151 194 214 229 231 126 56 18 2 21 133 139 101 81 95 106 132 146 138 91 63 61 184 188 196 194 191 204 192 167 173 172 169 178 176 166 152 80 98 139 106 65 12 347 320 313 338 113 183 212 184 173 190 192 189 198 176 179 207 205 202 254 261 287 321 357 90 106 114 96 82 108 123 126 133 147 145 135 138
96 85 116 164 172 178 189 168 159 181 189 198 228 226 196 235 232 227 239 198 166 141 160 186 245 273 117 125 119 108 61 359 202 206 201 191 205 175 165 172 168 170 186 179 166 167 132 155 149 117 112 23 5 317 288 297 221 186 197 195 189 194 194 191 192 182 199 204 192 200 235 240 278 315 338 68 93 122 157 174 159 158 154 151 151 148 151 156
117 94 80 148 162 179 229 204 159 183 185 181 205 215 225 242 221 260 282 261 230 213 170 177 207 196 105 118 115 102 93 41 312 241 232 199 192 137 171 176 170 176 185 158 139 137 126 165 162 151 167 176 189 209 207 202 200 188 190 196 199 196 193 196 203 197 214 207 190 204 228 230 308 311 86 80 99 143 173 190 191 207 194 148 143 148 151 160
130 110 119 118 42 5 286 318 337 215 182 176 188 210 217 226 212 213 256 282 284 273 268 250 196 154 119 128 125 114 127 124 117 307 316 307 334 334 182 179 179 182 170 147 138 121 104 188 196 203 196 182 195 202 138 136 164 179 187 193 200 202 194 192 196 207 214 204 194 225 234 236 248 230 163 155 200 191 185 191 198 220 232 181 159 160 156 172
130 131 153 148 114 196 252 285 279 267 191 174 168 179 198 219 232 190 179 224 272 257 260 269 196 202 171 139 142 166 147 137 154 218 285 265 307 317 202 182 189 179 153 144 143 123 103 203 202 231 259 268 305 132 134 147 177 186 184 186 193 195 188 189 205 215 211 202 224 233 228 232 236 213 187 208 202 182 182 198 206 204 196 186 176 167 178 207
122 131 158 160 143 175 196 204 204 214 211 189 174 172 187 199 214 202 177 204 246 207 191 226 208 224 239 181 161 164 150 150 164 168 168 180 253 302 233 185 190 164 141 147 160 135 127 197 188 202 257 276 304 331 150 166 189 192 184 186 189 187 188 199 213 217 206 204 231 230 222 232 230 199 206 219 189 173 179 181 179 168 163 169 170 176 200 217
88 112 144 163 164 168 181 188 183 193 216 211 191 193 198 195 202 208 186 171 231 202 182 224 223 207 226 232 214 186 169 175 180 162 154 168 213 264 235 185 183 158 146 161 176 152 159 188 172 178 233 258 283 315 234 177 180 183 191 195 189 187 197 205 215 221 213 221 239 235 230 239 227 184 205 216 171 161 165 153 159 164 168 178 184 194 209 214
153 123 140 167 196 173 177 176 168 186 213 217 209 211 214 209 207 210 191 170 192 189 182 217 230 208 205 218 219 223 207 187 185 159 150 161 227 244 243 244 167 160 161 168 171 177 194 188 164 165 209 247 242 267 290 258 194 186 192 196 190 191 202 210 217 217 209 224 238 236 237 246 230 175 199 210 167 138 146 185 206 192 179 180 187 203 211 215
110 61 112 165 183 168 173 177 176 189 198 201 211 208 210 220 214 209 203 184 189 195 189 209 225 218 207 220 225 231 219 193 189 161 150 169 196 198 221 258 166 164 175 173 168 180 191 180 152 154 194 226 209 208 227 247 248 217 198 193 191 194 201 209 215 211 202 218 233 235 240 246 218 168 201 210 185 183 207 229 242 235 203 188 194 206 209 216
109 61 74 156 171 167 176 182 181 190 198 204 212 207 209 222 210 201 213 196 197 210 209 209 214 209 217 231 229 225 214 196 195 180 165 174 181 210 257 283 253 179 182 177 170 174 181 175 151 159 201 222 194 182 192 203 236 238 211 196 195 199 204 209 215 214 209 216 223 227 234 231 167 177 206 199 193 213 226 233 241 242 226 205 205 205 200 211